Tracking 19192 objects as of 18-Jun-2018
HD Live streaming from Space Station
objects crossing your sky now

FENGYUN 1C DEB

Track FENGYUN 1C DEB now!
10-day predictions


NORAD ID: 31180
Int'l Code: 1999-025BJJ
Perigee: 640.2 km
Apogee: 1,396.9 km
Inclination: 99.2 °
Period: 105.4 minutes
Semi major axis: 7389 km
RCS: 0.0005 m2 (small)
Launch date: May 10, 1999
Source: People's Republic of China (PRC)
Launch site: Taiyaun Space Center, China (TSC)

Note: This is SATELLITE DEBRIS
aabbcc
Your satellite tracking list
Your tracking list is empty




NASA's NSSDC Master Catalog

Two Line Element Set (TLE):
1 31180U 99025BJJ 18167.48502610 +.00000028 +00000-0 +35177-4 0  9994
2 31180 099.1834 043.7952 0512003 030.4672 084.5866 13.66717564266649
Source of the keplerian elements: AFSPC